Ivanka pri Dunaji, Slovakia

3:27 AM CEST on July 26, 2017 (GMT +0200)
Ivanka pri Dunaji

Weather History for 11816 - August, 2013

Change the Weather History Date:

Friday, August 2, 2013

  Actual Average Record
Temperature  
Mean Temperature 77 °F -  
Max Temperature 93 °F 76 °F - ()
Min Temperature 61 °F 57 °F - ()
Cooling Degree Days 12    
Growing Degree Days 27 (Base 50)    
Moisture  
Dew Point 58 °F    
Average Humidity 51    
Maximum Humidity 82    
Minimum Humidity 20    
Precipitation  
Precipitation 0.00 in - - ()
Sea Level Pressure  
Sea Level Pressure 30.04 in    
Wind  
Wind Speed 3 mph ()    
Max Wind Speed 9 mph    
Max Gust Speed -    
Visibility 12.0 miles    
Events      
T = Trace of Precipitation, MM = Missing Value Source: Averaged Metar Reports

Daily Weather History Graph

Daily Weather History Graph

Search for Another Location

Airport or City:

Trip Planner

Search our weather history database for the weather conditions in past years. The results will help you decide how hot, cold, wet, or windy it might be!

Date:

Astronomy

Aug. 02, 2013 Rise Set
Actual Time 5:28 AM CEST 8:26 PM CEST
Civil Twilight 4:51 AM CEST 9:02 PM CEST
Nautical Twilight 4:04 AM CEST 9:49 PM CEST
Astronomical Twilight 3:06 AM CEST 10:45 PM CEST
Moon 1:32 AM CEST (8/2) 5:13 PM CEST (8/2)
Length of Visible Light 16h 10m
Length of Day
14h 58m
Waning Crescent, 17% of the Moon is Illuminated
Aug 2
Waning Crescent
Aug 6
New
Aug 14
First Quarter
Aug 21
Full
Aug 28
Last Quarter

Hourly Weather History & Observations

Time (CEST) Temp. Heat Index Dew Point Humidity Pressure Visibility Wind Dir Wind Speed Gust Speed Precip Events Conditions
12:00 AM 69 °F - 58 °F 60% 30.07 in 31 mi Calm Calm - -  
12:00 AM 69.8 °F - 59.0 °F 68% 30.06 in - NNE 1.2 mph - N/A   Clear
12:30 AM 66.2 °F - 57.2 °F 73% 30.06 in - East 3.5 mph - N/A   Clear
1:00 AM 67 °F - 58 °F 64% 30.08 in 31 mi NE 2.2 mph - -  
1:00 AM 66.2 °F - 57.2 °F 73% 30.06 in - NE 2.3 mph - N/A   Clear
1:30 AM 66.2 °F - 57.2 °F 73% 30.06 in - Variable 2.3 mph - N/A   Clear
2:00 AM 65 °F - 58 °F 72% 30.08 in 25 mi Calm Calm - -  
2:00 AM 66.2 °F - 57.2 °F 73% 30.06 in - NE 2.3 mph - N/A   Clear
2:30 AM 66.2 °F - 57.2 °F 73% 30.06 in - ENE 1.2 mph - N/A   Clear
3:00 AM 64 °F - 57 °F 72% 30.08 in 25 mi East 4.5 mph - -  
3:00 AM 64.4 °F - 57.2 °F 77% 30.06 in - East 3.5 mph - N/A   Clear
3:30 AM 64.4 °F - 57.2 °F 77% 30.06 in - Variable 2.3 mph - N/A   Clear
4:00 AM 65 °F - 58 °F 71% 30.07 in 25 mi North 4.5 mph - -  
4:00 AM 64.4 °F - 57.2 °F 77% 30.06 in - North 4.6 mph - N/A   Clear
4:30 AM 62.6 °F - 57.2 °F 82% 30.06 in - NE 2.3 mph - N/A   Clear
5:00 AM 62 °F - 57 °F 79% 30.07 in 31 mi NE 2.2 mph - -   Clear
5:00 AM 62.6 °F - 57.2 °F 82% 30.06 in - ENE 3.5 mph - N/A   Clear
5:30 AM 62.6 °F - 57.2 °F 82% 30.06 in - NE 3.5 mph - N/A   Clear
6:00 AM 63 °F - 57 °F 74% 30.08 in 25 mi Calm Calm - -  
6:00 AM 62.6 °F - 57.2 °F 82% 30.06 in - Calm Calm - N/A   Clear
6:30 AM 64.4 °F - 57.2 °F 77% 30.06 in - ENE 4.6 mph - N/A   Clear
7:00 AM 68.0 °F - 59.0 °F 73% 30.06 in - ENE 5.8 mph - N/A   Clear
7:30 AM 71.6 °F - 59.0 °F 64% 30.09 in - ENE 5.8 mph - N/A   Clear
8:00 AM 72 °F - 59 °F 55% 30.09 in 25 mi ENE 6.7 mph - -  
8:00 AM 71.6 °F - 59.0 °F 64% 30.09 in - East 6.9 mph - N/A   Clear
8:30 AM 73.4 °F - 59.0 °F 61% 30.09 in - ENE 8.1 mph - N/A   Clear
9:00 AM 75 °F - 59 °F 48% 30.09 in 22 mi ENE 8.9 mph - -  
9:00 AM 75.2 °F - 59.0 °F 57% 30.09 in - ENE 9.2 mph - N/A   Clear
9:30 AM 77.0 °F - 60.8 °F 57% 30.09 in - ENE 9.2 mph - N/A   Clear
10:00 AM 79 °F - 60 °F 41% 30.08 in 22 mi East 6.7 mph - -  
10:00 AM 78.8 °F - 59.0 °F 51% 30.09 in - East 6.9 mph - N/A   Clear
10:30 AM 80.6 °F 81.1 °F 59.0 °F 48% 30.09 in - East 6.9 mph - N/A   Clear
11:00 AM 82 °F - 58 °F 33% 30.07 in 25 mi East 4.5 mph - -  
11:00 AM 82.4 °F 82.0 °F 57.2 °F 42% 30.09 in - East 5.8 mph - N/A   Clear
11:30 AM 84.2 °F 83.5 °F 57.2 °F 40% 30.06 in - SE 5.8 mph - N/A   Clear
12:00 PM 85 °F - 57 °F 29% 30.06 in 25 mi 4.5 mph - -  
12:00 PM 86.0 °F 84.9 °F 57.2 °F 37% 30.06 in - Variable 4.6 mph - N/A   Clear
12:30 PM 86.0 °F 84.5 °F 55.4 °F 35% 30.06 in - Variable 6.9 mph - N/A   Clear
1:00 PM 89 °F - 56 °F 22% 30.05 in 25 mi SSE 4.5 mph - -  
1:00 PM 89.6 °F 87.3 °F 53.6 °F 29% 30.06 in - SSE 5.8 mph - N/A   Clear
1:30 PM 89.6 °F 87.7 °F 55.4 °F 31% 30.06 in - South 5.8 mph - N/A   Clear
2:00 PM 89 °F - 55 °F 22% 30.02 in 25 mi SE 6.7 mph - -   Scattered Clouds
2:00 PM 89.6 °F 87.7 °F 55.4 °F 31% 30.04 in - SE 5.8 mph - N/A   Clear
2:30 PM 91.4 °F 89.9 °F 57.2 °F 31% 30.04 in - SSE 4.6 mph - N/A   Clear
3:00 PM 91.4 °F 89.9 °F 57.2 °F 31% 30.01 in - Variable 3.5 mph - N/A   Clear
3:30 PM 91.4 °F 89.9 °F 57.2 °F 31% 30.01 in - SSE 6.9 mph - N/A   Clear
4:00 PM 93 °F - 57 °F 20% 29.99 in 25 mi 2.2 mph - -   Scattered Clouds
4:00 PM 91.4 °F 89.9 °F 57.2 °F 31% 30.01 in - Variable 4.6 mph - N/A   Clear
4:30 PM 93.2 °F 91.9 °F 57.2 °F 30% 30.01 in - SSE 4.6 mph - N/A   Clear
5:00 PM 92 °F - 56 °F 20% 29.97 in 25 mi South 4.5 mph - -   Scattered Clouds
5:00 PM 93.2 °F 91.3 °F 55.4 °F 28% 30.01 in - SSE 4.6 mph - N/A   Clear
5:30 PM 93.2 °F 91.3 °F 55.4 °F 28% 29.98 in - SSE 5.8 mph - N/A   Clear
6:00 PM 93 °F - 57 °F 20% 29.96 in 25 mi SSE 4.5 mph - -   Scattered Clouds
6:00 PM 93.2 °F 91.9 °F 57.2 °F 30% 29.98 in - SSE 4.6 mph - N/A   Clear
6:30 PM 93.2 °F 91.9 °F 57.2 °F 30% 29.98 in - South 5.8 mph - N/A   Clear
7:00 PM 92 °F - 57 °F 21% 29.96 in 25 mi SSE 4.5 mph - -  
7:00 PM 91.4 °F 89.9 °F 57.2 °F 31% 29.98 in - SSE 5.8 mph - N/A   Clear
7:30 PM 89.6 °F 88.9 °F 59.0 °F 36% 29.98 in - SSE 4.6 mph - N/A   Clear
8:00 PM 88 °F - 59 °F 27% 29.96 in 28 mi SSE 4.5 mph - -  
8:00 PM 87.8 °F 87.1 °F 59.0 °F 38% 29.98 in - SSE 4.6 mph - N/A   Clear
8:30 PM 86.0 °F 85.4 °F 59.0 °F 40% 29.98 in - ESE 2.3 mph - N/A   Clear
9:00 PM 82 °F - 63 °F 42% 29.98 in 25 mi NNE 2.2 mph - -  
9:00 PM 82.4 °F 83.4 °F 62.6 °F 51% 29.98 in - NNE 1.2 mph - N/A   Clear
9:30 PM 78.8 °F - 60.8 °F 54% 30.01 in - NNE 5.8 mph - N/A   Clear
10:00 PM 78 °F - 62 °F 48% 29.99 in 12 mi NE 4.5 mph - -  
10:00 PM 77.0 °F - 62.6 °F 61% 30.01 in - NE 3.5 mph - N/A   Clear
10:30 PM 75.2 °F - 62.6 °F 65% 30.01 in - NNE 3.5 mph - N/A   Clear
11:00 PM 74 °F - 62 °F 57% 30.00 in 12 mi NE 4.5 mph - -  
11:00 PM 75.2 °F - 62.6 °F 65% 30.01 in - NE 5.8 mph - N/A   Clear
11:30 PM 73.4 °F - 60.8 °F 65% 30.01 in - NNE 4.6 mph - N/A   Clear